This is the latest recevied weather packets stored in our database for station/object N0OQA. If no packets are shown the sender has not sent any weather packets the latest 10 day(s).
| Time | Temp. | Humidity | Pressure | Rain* | Wind** | Luminosity | Snow |
|---|---|---|---|---|---|---|---|
| 1788140668 | 25° C | 83% | 1010.4 hPa | 0 mm | - | - | - |
| 1788139166 | 25.56° C | 81% | 1010.3 hPa | 0 mm | - | - | - |
| 1788138866 | 25.56° C | 81% | 1010.2 hPa | 0 mm | - | - | - |
| 1788138565 | 25.56° C | 80% | 1010.1 hPa | 0 mm | - | - | - |
| 1788137965 | 26.11° C | 79% | 1010.2 hPa | 0 mm | - | - | - |
| 1788137664 | 26.11° C | 79% | 1010.2 hPa | 0 mm | - | - | - |
| 1788137364 | 26.11° C | 78% | 1010.2 hPa | 0 mm | - | - | - |
| 1788137064 | 26.11° C | 78% | 1010.2 hPa | 0 mm | - | - | - |
| 1788136763 | 26.11° C | 77% | 1010.2 hPa | 0 mm | - | - | - |
| 1788136463 | 26.67° C | 77% | 1010.3 hPa | 0 mm | - | - | - |
| 1788136163 | 26.11° C | 76% | 1010.3 hPa | 0 mm | - | - | - |
| 1788135863 | 26.67° C | 67% | 1009.8 hPa | 0 mm | - | - | - |
| 1788135562 | 26.67° C | 76% | 1010.3 hPa | 0 mm | - | - | - |
| 1788135262 | 27.22° C | 76% | 1010.3 hPa | 0 mm | - | - | - |
| 1788134962 | 26.67° C | 76% | 1010.3 hPa | 0 mm | - | - | - |
| 1788134361 | 26.67° C | 75% | 1010.2 hPa | 0 mm | - | - | - |
| 1788134061 | 27.22° C | 75% | 1010.1 hPa | 0 mm | - | - | - |
| 1788133460 | 26.67° C | 74% | 1010.2 hPa | 0 mm | - | - | - |
| 1788132560 | 27.22° C | 73% | 1010.3 hPa | 0 mm | - | - | - |
| 1788132259 | 27.22° C | 73% | 1010.3 hPa | 0 mm | - | - | - |
| 1788131959 | 27.22° C | 73% | 1010.2 hPa | 0 mm | - | - | - |
| 1788131658 | 27.22° C | 72% | 1010.2 hPa | 0 mm | - | - | - |
| 1788131358 | 27.22° C | 72% | 1010.3 hPa | 0 mm | - | - | - |
| 1788131057 | 27.22° C | 71% | 1010.3 hPa | 0 mm | - | - | - |
| 1788130757 | 27.78° C | 72% | 1010.3 hPa | 0 mm | - | - | - |
* Rain since midnight (hover to see other rain measurements)
** Current wind speed in m/s (hover to see current wind gust speed)